contact:dominique.lefevre@mio.osupytheas.fr, maurice.libes@osupytheas.fr, didier.mallarino@osupytheas.fr
Project:EMSO http://www.emso-fr.org/EMSO-France
Depth: 2436.0 m
Title:EMSO Ligure Ouest : Data MII capteur AQUADOPP
Date,Latitude,Longitude,X_East,Y_North,Z_Up,Amplitude_X,Amplitude_Y,Amplitude_Z,Batterie,SoundSpeed,Heading,Pitch,Roll,Pressure,TIS,Speed,Direction
, degrees North, degrees East, m.s-1, m.s-1,m.s-1, 1, 1, 1, Volt, m.s-1, degree, degree, degree, dbar, degree_C, m.s-1, degree
2022-03-15T00:04:03,42.805,6.029,0.02,-0.017,0.001,105.0,104.0,102.0,13.3,1505.2,329.0,-0.8,1.8,2470.762,13.28,0.026,130.4
2022-03-15T00:07:03,42.805,6.029,0.035,-0.006,-0.005,105.0,105.0,102.0,13.4,1505.2,323.6,-0.8,1.8,2470.772,13.28,0.035,99.7
2022-03-15T00:10:03,42.805,6.029,0.048,-0.01,0.011,103.0,104.0,102.0,13.4,1505.2,329.6,-0.8,1.8,2470.758,13.28,0.049,101.8
2022-03-15T00:13:03,42.805,6.029,0.023,0.002,0.005,103.0,106.0,102.0,13.4,1505.2,326.2,-0.8,1.8,2470.717,13.28,0.023,85.0
2022-03-15T00:16:03,42.805,6.029,0.027,-0.015,-0.006,104.0,105.0,102.0,13.4,1505.2,331.3,-0.7,1.8,2470.724,13.28,0.03,119.1
2022-03-15T00:19:03,42.805,6.029,0.048,-0.006,-0.007,105.0,104.0,102.0,13.4,1505.2,329.4,-0.8,1.8,2470.71,13.28,0.048,97.1
2022-03-15T00:22:03,42.805,6.029,0.047,-0.019,-0.007,104.0,105.0,101.0,13.3,1505.2,327.4,-0.8,1.8,2470.716,13.28,0.05,112.0
2022-03-15T00:25:03,42.805,6.029,0.048,-0.011,-0.012,103.0,105.0,102.0,13.4,1505.2,324.4,-0.7,1.8,2470.68,13.28,0.049,102.9
2022-03-15T00:28:03,42.805,6.029,0.028,-0.003,-0.012,104.0,103.0,103.0,13.4,1505.2,328.1,-0.8,1.8,2470.719,13.28,0.028,96.1
2022-03-15T00:31:03,42.805,6.029,0.03,-0.031,-0.014,104.0,105.0,101.0,13.4,1505.2,329.4,-0.7,1.8,2470.705,13.28,0.043,135.9
2022-03-15T00:34:03,42.805,6.029,0.034,-0.002,-0.019,105.0,104.0,101.0,13.4,1505.2,323.4,-0.7,1.8,2470.698,13.28,0.034,93.4
2022-03-15T00:37:03,42.805,6.029,0.023,-0.001,-0.007,104.0,104.0,102.0,13.4,1505.2,327.3,-0.7,1.8,2470.711,13.28,0.023,92.5
2022-03-15T00:40:03,42.805,6.029,0.032,-0.022,0.001,103.0,106.0,104.0,13.4,1505.2,328.5,-0.8,1.8,2470.688,13.28,0.038,124.5
2022-03-15T00:43:03,42.805,6.029,0.045,-0.025,-0.008,105.0,103.0,102.0,13.4,1505.2,323.6,-0.8,1.8,2470.673,13.28,0.051,119.1
2022-03-15T00:46:03,42.805,6.029,0.044,-0.01,-0.006,104.0,104.0,103.0,13.3,1505.2,329.7,-0.8,1.8,2470.705,13.28,0.045,102.8
2022-03-15T00:49:03,42.805,6.029,0.028,0.0,0.013,105.0,106.0,103.0,13.4,1505.2,331.4,-0.8,1.8,2470.699,13.28,0.028,90.0
2022-03-15T00:52:03,42.805,6.029,0.043,-0.007,-0.018,105.0,105.0,102.0,13.4,1505.2,330.1,-0.7,1.8,2470.701,13.28,0.043,99.2
2022-03-15T00:55:03,42.805,6.029,0.038,-0.018,-0.013,104.0,104.0,103.0,13.4,1505.2,324.7,-0.7,1.8,2470.7,13.28,0.042,115.3
2022-03-15T00:58:03,42.805,6.029,0.058,-0.016,-0.005,105.0,104.0,102.0,13.4,1505.2,326.5,-0.7,1.8,2470.699,13.28,0.06,105.4
2022-03-15T01:04:03,42.805,6.029,0.028,-0.012,-0.025,107.0,107.0,105.0,13.3,1505.2,326.0,-0.7,1.8,2470.759,13.28,0.03,113.2
2022-03-15T01:07:02,42.805,6.029,0.041,-0.005,0.022,105.0,106.0,102.0,13.3,1505.2,328.1,-0.8,1.9,2470.714,13.28,0.041,97.0
2022-03-15T01:10:03,42.805,6.029,0.039,-0.003,-0.012,107.0,104.0,102.0,13.4,1505.2,324.8,-0.8,1.8,2470.715,13.28,0.039,94.4
2022-03-15T01:13:03,42.805,6.029,0.028,0.016,0.005,104.0,105.0,102.0,13.3,1505.2,322.5,-0.7,1.8,2470.731,13.28,0.032,60.3
2022-03-15T01:16:03,42.805,6.029,0.03,-0.032,0.008,105.0,104.0,103.0,13.4,1505.2,331.1,-0.7,1.8,2470.723,13.28,0.043,136.9
2022-03-15T01:19:03,42.805,6.029,0.028,-0.031,-0.03,105.0,105.0,102.0,13.4,1505.2,322.9,-0.7,1.8,2470.714,13.28,0.041,137.9
2022-03-15T01:22:03,42.805,6.029,0.032,0.002,0.017,104.0,104.0,102.0,13.4,1505.2,324.3,-0.8,1.8,2470.714,13.28,0.032,86.4
2022-03-15T01:25:03,42.805,6.029,0.029,-0.001,0.034,105.0,104.0,102.0,13.4,1505.2,326.5,-0.8,1.8,2470.74,13.28,0.029,92.0
2022-03-15T01:28:03,42.805,6.029,0.038,-0.009,-0.011,104.0,104.0,103.0,13.4,1505.2,331.7,-0.8,1.8,2470.801,13.28,0.039,103.3
2022-03-15T01:31:03,42.805,6.029,0.047,-0.006,-0.01,105.0,103.0,102.0,13.3,1505.2,324.1,-0.8,1.8,2470.747,13.28,0.047,97.3
2022-03-15T01:34:03,42.805,6.029,0.041,-0.017,0.004,105.0,103.0,103.0,13.4,1505.2,329.2,-0.7,1.8,2470.748,13.28,0.044,112.5
2022-03-15T01:37:03,42.805,6.029,0.025,-0.004,-0.015,105.0,105.0,102.0,13.3,1505.2,324.7,-0.8,1.8,2470.743,13.28,0.025,99.1
2022-03-15T01:40:03,42.805,6.029,0.036,-0.017,0.025,105.0,105.0,102.0,13.4,1505.2,325.1,-0.8,1.8,2470.758,13.28,0.039,115.3
2022-03-15T01:43:03,42.805,6.029,0.046,-0.028,0.012,104.0,104.0,102.0,13.3,1505.2,325.9,-0.7,1.8,2470.763,13.28,0.053,121.3
2022-03-15T01:46:03,42.805,6.029,0.028,-0.025,0.011,104.0,103.0,103.0,13.4,1505.2,329.4,-0.8,1.8,2470.696,13.28,0.037,131.8
2022-03-15T01:49:03,42.805,6.029,0.033,0.012,0.005,105.0,105.0,103.0,13.4,1505.2,323.7,-0.7,1.9,2470.707,13.28,0.035,70.0
2022-03-15T01:52:03,42.805,6.029,0.036,-0.035,0.01,105.0,106.0,102.0,13.4,1505.2,324.9,-0.8,1.8,2470.739,13.28,0.05,134.2
2022-03-15T01:55:03,42.805,6.029,0.026,-0.027,-0.01,105.0,105.0,103.0,13.4,1505.2,323.6,-0.7,1.8,2470.71,13.28,0.037,136.1
2022-03-15T01:58:03,42.805,6.029,0.035,-0.001,0.011,105.0,105.0,101.0,13.4,1505.2,331.1,-0.8,1.8,2470.752,13.28,0.035,91.6
2022-03-15T02:04:03,42.805,6.029,0.009,-0.004,-0.013,105.0,104.0,102.0,13.4,1505.2,325.7,-0.8,1.8,2470.742,13.28,0.009,114.0
2022-03-15T02:07:03,42.805,6.029,0.022,-0.004,0.013,105.0,105.0,102.0,13.4,1505.2,325.4,-0.8,1.8,2470.756,13.28,0.022,100.3
2022-03-15T02:10:03,42.805,6.029,0.037,0.0,-0.009,105.0,105.0,102.0,13.4,1505.2,325.1,-0.7,1.8,2470.746,13.28,0.037,90.0
2022-03-15T02:13:03,42.805,6.029,0.031,0.006,0.022,103.0,105.0,103.0,13.4,1505.2,323.6,-0.8,1.8,2470.804,13.28,0.031,79.0
2022-03-15T02:16:03,42.805,6.029,0.035,-0.011,-0.025,105.0,104.0,102.0,13.4,1505.2,329.0,-0.7,1.8,2470.819,13.28,0.036,107.4
2022-03-15T02:19:03,42.805,6.029,0.042,-0.003,0.011,106.0,103.0,101.0,13.4,1505.2,326.6,-0.7,1.8,2470.74,13.28,0.042,94.1
2022-03-15T02:22:03,42.805,6.029,0.025,-0.014,0.004,104.0,105.0,102.0,13.3,1505.2,331.8,-0.7,1.8,2470.765,13.28,0.028,119.3
2022-03-15T02:25:03,42.805,6.029,0.039,-0.01,0.012,105.0,105.0,102.0,13.4,1505.2,331.2,-0.8,1.8,2470.738,13.28,0.04,104.4
2022-03-15T02:28:03,42.805,6.029,0.03,0.001,-0.009,105.0,105.0,102.0,13.4,1505.2,327.7,-0.8,1.8,2470.776,13.28,0.03,88.1
2022-03-15T02:31:03,42.805,6.029,0.038,-0.009,0.024,105.0,106.0,102.0,13.4,1505.2,325.6,-0.7,1.8,2470.785,13.28,0.039,103.3
2022-03-15T02:34:03,42.805,6.029,0.041,-0.011,-0.009,103.0,105.0,103.0,13.4,1505.2,325.7,-0.8,1.8,2470.737,13.28,0.042,105.0
2022-03-15T02:37:03,42.805,6.029,0.048,-0.012,0.008,106.0,103.0,103.0,13.3,1505.2,326.0,-0.7,1.8,2470.702,13.28,0.049,104.0
2022-03-15T02:40:03,42.805,6.029,0.023,-0.006,0.015,104.0,105.0,102.0,13.4,1505.2,324.5,-0.7,1.8,2470.758,13.28,0.023,104.6
2022-03-15T02:43:03,42.805,6.029,0.034,-0.024,-0.009,104.0,104.0,102.0,13.4,1505.2,326.3,-0.8,1.8,2470.736,13.28,0.041,125.2
2022-03-15T02:46:03,42.805,6.029,0.034,-0.004,-0.01,105.0,104.0,101.0,13.4,1505.2,326.8,-0.8,1.8,2470.751,13.28,0.034,96.7
2022-03-15T02:49:03,42.805,6.029,0.031,-0.007,-0.038,107.0,105.0,101.0,13.4,1505.2,329.9,-0.7,1.8,2470.73,13.28,0.031,102.7
2022-03-15T02:52:03,42.805,6.029,0.046,-0.005,-0.006,104.0,105.0,102.0,13.4,1505.2,330.3,-0.7,1.8,2470.776,13.28,0.046,96.2
2022-03-15T02:55:03,42.805,6.029,0.044,-0.003,-0.022,104.0,104.0,103.0,13.4,1505.2,327.9,-0.8,1.8,2470.765,13.28,0.044,93.9
2022-03-15T02:58:03,42.805,6.029,0.026,-0.012,-0.002,104.0,105.0,102.0,13.4,1505.2,325.6,-0.7,1.8,2470.771,13.28,0.028,114.8
2022-03-15T03:04:03,42.805,6.029,0.049,0.004,0.019,103.0,104.0,103.0,13.4,1505.2,325.6,-0.8,1.8,2470.818,13.28,0.049,85.3
2022-03-15T03:07:03,42.805,6.029,0.038,0.003,-0.002,105.0,104.0,103.0,13.4,1505.2,325.8,-0.7,1.8,2470.8,13.28,0.038,85.5
2022-03-15T03:10:03,42.805,6.029,0.029,0.005,0.026,105.0,104.0,103.0,13.3,1505.2,329.7,-0.8,1.8,2470.821,13.28,0.029,80.2
2022-03-15T03:13:03,42.805,6.029,0.044,-0.018,-0.02,104.0,103.0,102.0,13.3,1505.2,330.1,-0.7,1.8,2470.824,13.28,0.047,112.2
2022-03-15T03:16:03,42.805,6.029,0.018,-0.013,-0.008,104.0,105.0,102.0,13.4,1505.2,324.5,-0.7,1.8,2470.83,13.28,0.022,125.8
2022-03-15T03:19:03,42.805,6.029,0.028,-0.024,0.013,106.0,105.0,102.0,13.4,1505.2,329.3,-0.8,1.8,2470.79,13.28,0.036,130.6
2022-03-15T03:22:03,42.805,6.029,0.042,-0.02,-0.014,104.0,105.0,103.0,13.4,1505.2,324.5,-0.7,1.8,2470.826,13.28,0.046,115.5
2022-03-15T03:25:03,42.805,6.029,0.042,-0.002,-0.013,104.0,105.0,103.0,13.4,1505.2,325.1,-0.7,1.8,2470.809,13.28,0.042,92.7
2022-03-15T03:28:03,42.805,6.029,0.033,-0.02,-0.037,104.0,105.0,103.0,13.3,1505.2,324.7,-0.7,1.8,2470.827,13.28,0.038,121.2
2022-03-15T03:31:03,42.805,6.029,0.033,-0.023,-0.008,105.0,105.0,103.0,13.3,1505.2,326.2,-0.8,1.8,2470.807,13.28,0.04,124.9
2022-03-15T03:34:03,42.805,6.029,0.022,-0.017,0.003,104.0,104.0,102.0,13.4,1505.2,322.7,-0.7,1.8,2470.761,13.28,0.027,127.7
2022-03-15T03:37:03,42.805,6.029,0.034,0.004,0.004,105.0,104.0,103.0,13.4,1505.2,331.7,-0.8,1.8,2470.81,13.28,0.034,83.3
2022-03-15T03:40:03,42.805,6.029,0.016,0.0,0.017,105.0,104.0,101.0,13.4,1505.2,323.8,-0.8,1.8,2470.795,13.28,0.016,90.0
2022-03-15T03:43:03,42.805,6.029,0.036,-0.026,-0.017,106.0,105.0,102.0,13.3,1505.2,329.5,-0.7,1.8,2470.832,13.28,0.044,125.8
2022-03-15T03:46:03,42.805,6.029,0.048,-0.004,0.02,105.0,105.0,102.0,13.3,1505.2,326.0,-0.8,1.8,2470.812,13.28,0.048,94.8
2022-03-15T03:49:03,42.805,6.029,0.026,-0.015,-0.005,104.0,104.0,102.0,13.3,1505.2,330.0,-0.8,1.8,2470.779,13.28,0.03,120.0
2022-03-15T03:52:03,42.805,6.029,0.033,0.001,0.017,104.0,105.0,102.0,13.4,1505.2,326.1,-0.8,1.8,2470.793,13.28,0.033,88.3
2022-03-15T03:55:03,42.805,6.029,0.06,-0.004,0.017,104.0,104.0,102.0,13.3,1505.2,326.6,-0.7,1.8,2470.782,13.28,0.06,93.8
2022-03-15T03:58:03,42.805,6.029,0.032,-0.001,-0.015,104.0,105.0,103.0,13.4,1505.2,327.0,-0.7,1.8,2470.847,13.28,0.032,91.8
2022-03-15T04:04:03,42.805,6.029,0.022,-0.021,-0.008,105.0,106.0,102.0,13.3,1505.2,326.3,-0.8,1.8,2470.799,13.28,0.03,133.7
2022-03-15T04:07:03,42.805,6.029,0.038,-0.019,-0.006,104.0,105.0,103.0,13.3,1505.2,327.8,-0.8,1.8,2470.82,13.28,0.042,116.6
2022-03-15T04:10:03,42.805,6.029,0.03,-0.002,-0.001,105.0,104.0,102.0,13.4,1505.2,325.7,-0.8,1.8,2470.782,13.28,0.03,93.8
2022-03-15T04:13:03,42.805,6.029,0.023,-0.003,0.025,104.0,105.0,103.0,13.3,1505.2,324.7,-0.7,1.8,2470.777,13.28,0.023,97.4
2022-03-15T04:16:03,42.805,6.029,0.014,0.005,0.006,105.0,105.0,102.0,13.4,1505.2,325.9,-0.8,1.8,2470.786,13.28,0.014,70.4
2022-03-15T04:19:03,42.805,6.029,0.034,0.017,0.005,104.0,106.0,103.0,13.4,1505.2,326.7,-0.7,1.8,2470.8,13.28,0.038,63.4
2022-03-15T04:22:03,42.805,6.029,0.017,0.008,-0.027,105.0,106.0,103.0,13.4,1505.2,323.0,-0.8,1.8,2470.811,13.28,0.018,64.8
2022-03-15T04:25:03,42.805,6.029,0.038,0.012,0.012,104.0,106.0,102.0,13.4,1505.2,327.0,-0.8,1.8,2470.845,13.28,0.039,72.5
2022-03-15T04:28:03,42.805,6.029,0.028,0.003,0.014,105.0,105.0,103.0,13.4,1505.2,326.3,-0.8,1.8,2470.812,13.28,0.028,83.9
2022-03-15T04:31:03,42.805,6.029,0.034,-0.005,-0.004,104.0,105.0,102.0,13.3,1505.2,327.4,-0.8,1.8,2470.797,13.28,0.034,98.4
2022-03-15T04:34:03,42.805,6.029,0.001,0.008,-0.007,104.0,105.0,102.0,13.4,1505.2,328.9,-0.7,1.8,2470.834,13.28,0.008,7.1
2022-03-15T04:37:03,42.805,6.029,0.045,0.008,0.004,106.0,105.0,102.0,13.4,1505.2,325.9,-0.7,1.8,2470.789,13.28,0.045,79.9
2022-03-15T04:40:03,42.805,6.029,0.035,0.007,0.03,105.0,106.0,102.0,13.3,1505.2,324.9,-0.8,1.8,2470.824,13.28,0.035,78.7
2022-03-15T04:43:03,42.805,6.029,0.03,-0.021,0.002,105.0,105.0,102.0,13.4,1505.2,326.6,-0.8,1.8,2470.775,13.28,0.036,125.0
2022-03-15T04:46:03,42.805,6.029,0.036,-0.002,-0.001,105.0,105.0,103.0,13.4,1505.2,326.3,-0.8,1.8,2470.84,13.28,0.036,93.2
2022-03-15T04:49:03,42.805,6.029,0.031,0.008,0.007,106.0,105.0,103.0,13.4,1505.2,327.4,-0.8,1.8,2470.835,13.28,0.032,75.5
2022-03-15T04:52:03,42.805,6.029,0.027,0.003,0.004,104.0,106.0,103.0,13.4,1505.2,326.8,-0.8,1.8,2470.831,13.28,0.027,83.7
2022-03-15T04:55:03,42.805,6.029,0.039,0.001,0.044,105.0,106.0,103.0,13.4,1505.2,327.1,-0.8,1.8,2470.821,13.28,0.039,88.5
2022-03-15T04:58:03,42.805,6.029,0.046,0.013,-0.002,104.0,106.0,102.0,13.4,1505.2,326.6,-0.8,1.8,2470.817,13.28,0.047,74.2
2022-03-15T05:04:03,42.805,6.029,0.046,-0.008,-0.013,105.0,107.0,103.0,13.3,1505.2,328.0,-0.7,1.8,2470.824,13.28,0.046,99.9
2022-03-15T05:07:03,42.805,6.029,0.045,-0.017,-0.009,105.0,106.0,102.0,13.4,1505.2,326.3,-0.7,1.8,2470.834,13.28,0.048,110.7
2022-03-15T05:10:03,42.805,6.029,0.035,-0.006,0.014,104.0,106.0,102.0,13.4,1505.2,329.7,-0.8,1.8,2470.849,13.28,0.035,99.7
2022-03-15T05:13:03,42.805,6.029,0.045,0.0,-0.003,104.0,106.0,103.0,13.3,1505.2,323.2,-0.8,1.8,2470.817,13.28,0.045,90.0
2022-03-15T05:16:03,42.805,6.029,0.029,-0.001,0.002,105.0,105.0,104.0,13.4,1505.2,324.7,-0.8,1.8,2470.841,13.28,0.029,92.0
2022-03-15T05:19:03,42.805,6.029,0.039,0.007,0.004,105.0,106.0,103.0,13.3,1505.2,325.8,-0.8,1.8,2470.831,13.28,0.039,79.8
2022-03-15T05:22:03,42.805,6.029,0.049,-0.012,0.001,104.0,105.0,104.0,13.4,1505.2,329.2,-0.7,1.8,2470.826,13.28,0.05,103.8
2022-03-15T05:25:03,42.805,6.029,0.037,-0.015,0.027,104.0,105.0,103.0,13.4,1505.2,332.1,-0.7,1.8,2470.841,13.28,0.039,112.1
2022-03-15T05:28:03,42.805,6.029,0.034,0.001,-0.001,105.0,106.0,102.0,13.4,1505.2,327.8,-0.7,1.8,2470.87,13.28,0.034,88.3
2022-03-15T05:31:03,42.805,6.029,0.052,-0.002,0.02,103.0,106.0,103.0,13.3,1505.2,328.1,-0.8,1.8,2470.89,13.28,0.052,92.2
2022-03-15T05:34:03,42.805,6.029,0.032,0.005,0.0,106.0,105.0,103.0,13.3,1505.2,327.6,-0.7,1.8,2470.877,13.28,0.032,81.1
2022-03-15T05:37:03,42.805,6.029,0.031,0.0,-0.008,105.0,106.0,102.0,13.3,1505.2,322.5,-0.8,1.8,2470.836,13.28,0.03,90.0
2022-03-15T05:40:03,42.805,6.029,0.027,0.017,0.028,106.0,106.0,103.0,13.3,1505.2,329.9,-0.8,1.8,2470.818,13.28,0.031,57.8
2022-03-15T05:43:03,42.805,6.029,0.018,0.007,0.003,106.0,106.0,103.0,13.4,1505.2,322.5,-0.8,1.8,2470.868,13.28,0.019,68.8
2022-03-15T05:46:03,42.805,6.029,0.028,0.006,0.025,106.0,106.0,103.0,13.4,1505.2,326.1,-0.8,1.9,2470.846,13.28,0.028,77.9
2022-03-15T05:49:03,42.805,6.029,0.025,0.009,0.005,106.0,106.0,102.0,13.4,1505.2,325.5,-0.8,1.8,2470.822,13.28,0.026,70.2
2022-03-15T05:52:03,42.805,6.029,0.034,0.005,-0.005,105.0,105.0,103.0,13.3,1505.2,329.4,-0.7,1.8,2470.848,13.28,0.034,81.6
2022-03-15T05:55:03,42.805,6.029,0.041,0.011,0.002,105.0,105.0,103.0,13.4,1505.2,323.0,-0.7,1.8,2470.889,13.28,0.042,75.0
2022-03-15T05:58:03,42.805,6.029,0.047,-0.014,0.01,104.0,106.0,103.0,13.4,1505.2,329.3,-0.7,1.9,2470.874,13.28,0.049,106.6
2022-03-15T06:04:03,42.805,6.029,0.036,-0.001,0.0,107.0,106.0,104.0,13.3,1505.2,328.6,-0.8,1.8,2470.873,13.28,0.036,91.6
2022-03-15T06:07:03,42.805,6.029,0.058,-0.02,0.013,105.0,105.0,103.0,13.3,1505.2,331.8,-0.7,1.8,2470.871,13.28,0.061,109.0
2022-03-15T06:10:03,42.805,6.029,0.05,-0.017,0.003,105.0,106.0,102.0,13.3,1505.2,329.9,-0.8,1.8,2470.875,13.28,0.052,108.8
2022-03-15T06:13:03,42.805,6.029,0.007,0.002,0.012,106.0,105.0,103.0,13.4,1505.2,328.7,-0.7,1.8,2470.875,13.28,0.007,74.1
2022-03-15T06:16:03,42.805,6.029,0.029,0.004,0.0,106.0,105.0,103.0,13.4,1505.2,327.1,-0.8,1.8,2470.851,13.28,0.029,82.2
2022-03-15T06:19:03,42.805,6.029,0.024,-0.003,0.004,105.0,106.0,102.0,13.3,1505.2,328.7,-0.8,1.8,2470.829,13.28,0.024,97.1
2022-03-15T06:22:03,42.805,6.029,0.024,-0.018,-0.033,104.0,105.0,103.0,13.4,1505.2,324.0,-0.7,1.8,2470.848,13.28,0.03,126.9
2022-03-15T06:25:03,42.805,6.029,0.031,0.009,-0.007,104.0,107.0,103.0,13.4,1505.2,329.6,-0.7,1.8,2470.841,13.28,0.032,73.8
2022-03-15T06:28:03,42.805,6.029,0.044,-0.005,0.0,106.0,106.0,104.0,13.4,1505.2,329.2,-0.8,1.8,2470.805,13.28,0.044,96.5
2022-03-15T06:31:03,42.805,6.029,0.043,-0.008,0.004,106.0,106.0,103.0,13.3,1505.2,322.3,-0.7,1.8,2470.807,13.28,0.043,100.5
2022-03-15T06:34:03,42.805,6.029,0.057,0.004,0.021,106.0,104.0,103.0,13.4,1505.2,330.8,-0.7,1.8,2470.799,13.28,0.057,86.0
2022-03-15T06:37:03,42.805,6.029,0.053,-0.008,0.008,105.0,105.0,103.0,13.4,1505.2,326.5,-0.7,1.8,2470.817,13.28,0.053,98.6
2022-03-15T06:40:03,42.805,6.029,0.022,-0.019,0.037,106.0,105.0,103.0,13.3,1505.2,330.4,-0.7,1.8,2470.78,13.28,0.029,130.8
2022-03-15T06:43:03,42.805,6.029,0.027,-0.002,0.006,104.0,104.0,104.0,13.4,1505.2,324.2,-0.7,1.8,2470.799,13.28,0.027,94.2
2022-03-15T06:46:03,42.805,6.029,0.022,0.001,0.001,107.0,105.0,102.0,13.3,1505.2,325.6,-0.8,1.8,2470.804,13.28,0.022,87.4
2022-03-15T06:49:03,42.805,6.029,0.032,-0.009,-0.009,104.0,106.0,103.0,13.4,1505.2,325.6,-0.8,1.8,2470.833,13.28,0.033,105.7
2022-03-15T06:52:03,42.805,6.029,0.025,-0.03,-0.006,106.0,106.0,102.0,13.4,1505.2,325.4,-0.8,1.8,2470.833,13.28,0.039,140.2
2022-03-15T06:55:03,42.805,6.029,0.036,0.021,-0.016,105.0,106.0,103.0,13.4,1505.2,325.3,-0.8,1.8,2470.814,13.28,0.041,59.7
2022-03-15T06:58:03,42.805,6.029,0.038,-0.009,-0.006,104.0,104.0,104.0,13.4,1505.2,324.6,-0.8,1.9,2470.823,13.28,0.039,103.3
2022-03-15T07:04:03,42.805,6.029,0.014,-0.002,0.008,106.0,107.0,104.0,13.4,1505.2,323.8,-0.8,1.8,2470.87,13.28,0.014,98.1
2022-03-15T07:07:03,42.805,6.029,0.03,-0.008,0.028,106.0,105.0,102.0,13.4,1505.2,331.9,-0.8,1.8,2470.887,13.28,0.031,104.9
2022-03-15T07:10:03,42.805,6.029,0.049,0.004,0.025,106.0,105.0,103.0,13.4,1505.2,324.7,-0.7,1.8,2470.869,13.28,0.049,85.3
2022-03-15T07:13:03,42.805,6.029,0.035,-0.005,0.031,105.0,105.0,103.0,13.4,1505.2,322.5,-0.7,1.8,2470.835,13.28,0.035,98.1
2022-03-15T07:16:03,42.805,6.029,0.029,-0.018,-0.019,105.0,105.0,103.0,13.3,1505.2,325.6,-0.8,1.8,2470.828,13.28,0.034,121.8
2022-03-15T07:19:03,42.805,6.029,0.003,-0.017,0.006,105.0,104.0,102.0,13.4,1505.2,326.1,-0.8,1.8,2470.853,13.28,0.017,170.0
2022-03-15T07:22:03,42.805,6.029,0.005,-0.018,-0.015,104.0,105.0,103.0,13.4,1505.2,324.4,-0.8,1.8,2470.891,13.28,0.018,164.5
2022-03-15T07:25:03,42.805,6.029,0.034,0.026,0.045,105.0,105.0,103.0,13.4,1505.2,324.0,-0.8,1.8,2470.847,13.28,0.042,52.6
2022-03-15T07:28:03,42.805,6.029,0.028,-0.005,-0.008,106.0,106.0,102.0,13.4,1505.2,332.3,-0.7,1.8,2470.837,13.28,0.028,100.1
2022-03-15T07:31:03,42.805,6.029,0.026,-0.031,0.003,105.0,105.0,102.0,13.4,1505.2,323.4,-0.7,1.8,2470.85,13.28,0.04,140.0
2022-03-15T07:34:03,42.805,6.029,0.034,-0.018,0.004,105.0,105.0,102.0,13.4,1505.2,325.4,-0.7,1.8,2470.834,13.28,0.038,117.9
2022-03-15T07:37:03,42.805,6.029,0.03,-0.039,-0.032,105.0,105.0,103.0,13.4,1505.2,325.9,-0.8,1.8,2470.862,13.28,0.049,142.4
2022-03-15T07:40:03,42.805,6.029,0.019,-0.032,-0.021,105.0,105.0,103.0,13.4,1505.2,328.3,-0.8,1.8,2470.824,13.28,0.037,149.3
2022-03-15T07:43:03,42.805,6.029,0.036,-0.018,-0.014,105.0,105.0,103.0,13.4,1505.2,328.0,-0.8,1.8,2470.864,13.28,0.04,116.6
2022-03-15T07:46:03,42.805,6.029,0.033,-0.012,-0.023,105.0,104.0,103.0,13.4,1505.2,329.2,-0.8,1.8,2470.858,13.28,0.035,110.0
2022-03-15T07:49:03,42.805,6.029,0.026,-0.015,0.007,105.0,105.0,103.0,13.4,1505.2,323.3,-0.8,1.8,2470.846,13.28,0.03,120.0
2022-03-15T07:52:03,42.805,6.029,0.015,-0.027,-0.042,105.0,104.0,103.0,13.4,1505.2,331.8,-0.8,1.8,2470.781,13.29,0.03,150.9
2022-03-15T07:55:03,42.805,6.029,0.017,-0.025,0.017,104.0,104.0,103.0,13.4,1505.2,327.2,-0.8,1.8,2470.808,13.28,0.03,145.8
2022-03-15T07:58:03,42.805,6.029,0.007,-0.016,-0.02,106.0,104.0,103.0,13.4,1505.2,331.7,-0.8,1.8,2470.751,13.29,0.017,156.4
2022-03-15T08:04:03,42.805,6.029,0.043,-0.014,-0.016,105.0,105.0,102.0,13.4,1505.2,324.6,-0.8,1.8,2470.76,13.28,0.045,108.0
2022-03-15T08:07:03,42.805,6.029,0.021,-0.007,-0.001,105.0,104.0,103.0,13.4,1505.2,323.6,-0.8,1.8,2470.802,13.28,0.022,108.4
2022-03-15T08:10:03,42.805,6.029,0.017,-0.021,-0.005,105.0,105.0,102.0,13.4,1505.2,327.2,-0.7,1.8,2470.785,13.28,0.027,141.0
2022-03-15T08:13:03,42.805,6.029,0.028,-0.027,-0.016,105.0,105.0,103.0,13.3,1505.2,329.4,-0.8,1.8,2470.813,13.28,0.038,134.0
2022-03-15T08:16:03,42.805,6.029,0.042,0.003,-0.013,105.0,104.0,102.0,13.4,1505.2,325.1,-0.7,1.8,2470.777,13.28,0.042,85.9
2022-03-15T08:19:03,42.805,6.029,0.022,-0.01,0.005,106.0,104.0,103.0,13.4,1505.2,325.3,-0.8,1.8,2470.812,13.28,0.024,114.4
2022-03-15T08:22:03,42.805,6.029,0.032,-0.013,-0.003,105.0,104.0,103.0,13.3,1505.2,323.1,-0.8,1.8,2470.764,13.28,0.034,112.1
2022-03-15T08:25:03,42.805,6.029,0.025,0.007,0.001,105.0,106.0,102.0,13.3,1505.2,326.5,-0.8,1.8,2470.795,13.29,0.025,74.4
2022-03-15T08:28:03,42.805,6.029,0.01,-0.012,0.018,106.0,105.0,103.0,13.4,1505.2,332.1,-0.8,1.8,2470.808,13.28,0.015,140.2
2022-03-15T08:31:03,42.805,6.029,0.022,-0.01,-0.011,106.0,104.0,103.0,13.3,1505.2,327.8,-0.8,1.9,2470.781,13.28,0.024,114.4
2022-03-15T08:34:03,42.805,6.029,0.036,-0.027,0.003,105.0,104.0,102.0,13.4,1505.2,327.7,-0.8,1.8,2470.785,13.28,0.045,126.9
2022-03-15T08:37:03,42.805,6.029,0.02,0.0,-0.007,105.0,105.0,103.0,13.3,1505.2,329.8,-0.8,1.8,2470.794,13.28,0.02,90.0
2022-03-15T08:40:03,42.805,6.029,0.034,-0.001,0.023,106.0,105.0,103.0,13.4,1505.2,323.4,-0.7,1.8,2470.811,13.28,0.034,91.7
2022-03-15T08:43:03,42.805,6.029,0.025,-0.024,-0.006,105.0,106.0,104.0,13.4,1505.2,328.9,-0.7,1.8,2470.772,13.28,0.034,133.8
2022-03-15T08:46:03,42.805,6.029,-0.002,-0.011,0.015,104.0,105.0,103.0,13.4,1505.2,326.2,-0.7,1.8,2470.787,13.28,0.011,190.3
2022-03-15T08:49:03,42.805,6.029,0.021,-0.003,-0.022,106.0,105.0,103.0,13.3,1505.2,324.9,-0.8,1.8,2470.778,13.29,0.021,98.1
2022-03-15T08:52:03,42.805,6.029,0.044,-0.022,0.008,105.0,107.0,103.0,13.3,1505.2,328.0,-0.7,1.8,2470.808,13.29,0.049,116.6
2022-03-15T08:55:03,42.805,6.029,0.042,-0.006,0.013,104.0,106.0,103.0,13.3,1505.2,325.8,-0.8,1.8,2470.776,13.29,0.042,98.1
2022-03-15T08:58:03,42.805,6.029,0.019,0.0,0.003,106.0,106.0,102.0,13.3,1505.2,327.2,-0.7,1.8,2470.786,13.29,0.019,90.0
2022-03-15T09:04:03,42.805,6.029,0.038,-0.018,0.004,105.0,104.0,102.0,13.3,1505.2,324.0,-0.8,1.8,2470.816,13.28,0.042,115.3
2022-03-15T09:07:03,42.805,6.029,0.033,0.0,0.008,105.0,104.0,103.0,13.4,1505.2,324.0,-0.7,1.8,2470.795,13.28,0.033,90.0
2022-03-15T09:10:03,42.805,6.029,0.013,-0.017,-0.021,105.0,106.0,103.0,13.3,1505.2,329.2,-0.8,1.8,2470.829,13.28,0.021,142.6
2022-03-15T09:13:03,42.805,6.029,0.027,-0.02,0.004,105.0,105.0,102.0,13.4,1505.2,326.8,-0.8,1.8,2470.726,13.28,0.033,126.5
2022-03-15T09:16:03,42.805,6.029,0.019,-0.004,-0.001,105.0,105.0,103.0,13.3,1505.2,326.1,-0.8,1.8,2470.723,13.28,0.019,101.9
2022-03-15T09:19:03,42.805,6.029,0.032,-0.011,-0.007,104.0,105.0,104.0,13.4,1505.2,328.9,-0.8,1.8,2470.693,13.28,0.033,109.0
2022-03-15T09:22:03,42.805,6.029,0.045,-0.006,0.011,105.0,104.0,103.0,13.4,1505.2,325.8,-0.8,1.8,2470.662,13.28,0.045,97.6
2022-03-15T09:25:03,42.805,6.029,0.023,-0.008,-0.018,105.0,104.0,103.0,13.4,1505.2,326.6,-0.8,1.9,2470.657,13.29,0.024,109.2
2022-03-15T09:28:03,42.805,6.029,0.025,-0.019,-0.007,105.0,106.0,104.0,13.3,1505.2,329.4,-0.8,1.9,2470.612,13.29,0.031,127.2
2022-03-15T09:31:03,42.805,6.029,0.02,0.013,0.012,105.0,106.0,104.0,13.3,1505.2,326.5,-0.7,1.8,2470.593,13.29,0.023,57.0
2022-03-15T09:34:03,42.805,6.029,0.03,-0.016,-0.016,106.0,106.0,103.0,13.4,1505.2,329.4,-0.8,1.8,2470.576,13.29,0.034,118.1
2022-03-15T09:37:03,42.805,6.029,0.031,-0.012,-0.015,106.0,106.0,102.0,13.4,1505.2,322.7,-0.8,1.8,2470.588,13.29,0.033,111.2
2022-03-15T09:40:03,42.805,6.029,0.028,-0.022,-0.009,106.0,105.0,103.0,13.4,1505.2,321.9,-0.7,1.8,2470.554,13.29,0.035,128.2
2022-03-15T09:43:03,42.805,6.029,0.021,0.0,0.003,107.0,105.0,103.0,13.3,1505.2,325.9,-0.7,1.8,2470.596,13.29,0.021,90.0
2022-03-15T09:46:03,42.805,6.029,0.034,-0.023,0.008,105.0,104.0,102.0,13.4,1505.2,329.5,-0.8,1.8,2470.56,13.29,0.041,124.1
2022-03-15T09:49:03,42.805,6.029,0.033,0.003,-0.013,105.0,104.0,103.0,13.3,1505.2,326.6,-0.8,1.9,2470.534,13.29,0.033,84.8
2022-03-15T09:52:03,42.805,6.029,0.022,0.003,-0.028,105.0,105.0,102.0,13.4,1505.2,325.6,-0.8,1.8,2470.48,13.29,0.022,82.2
2022-03-15T09:55:03,42.805,6.029,0.016,0.0,0.008,104.0,106.0,102.0,13.3,1505.2,325.3,-0.8,1.8,2470.559,13.29,0.016,90.0
2022-03-15T09:58:03,42.805,6.029,0.042,-0.024,0.002,107.0,104.0,103.0,13.3,1505.2,327.0,-0.8,1.8,2470.533,13.29,0.048,119.7